JA0BES-13 Weather Reports


time (UTC)temp
C
wind
direction
speed
KPH
gust
KPH
rain 1hr
cm
rain 24hr
cm
rain mn
cm
humidity
%
barometer
mb
20260502130247 14 225 0.0 0.0 0.00 0.00 0.33 79 1011.5
20260502123246 15 180 0.0 0.0 0.00 0.00 0.33 76 1011.3
20260502122245 15 225 0.0 0.0 0.00 0.00 0.33 75 1011.3
20260502121245 15 225 0.0 0.0 0.00 0.00 0.33 74 1011.4
20260502120244 15 180 0.0 0.0 0.00 0.00 0.33 74 1011.3
20260502115244 16 180 0.0 0.0 0.00 0.00 0.33 73 1011.1
20260502114244 16 225 0.0 0.0 0.00 0.00 0.33 73 1011.0
20260502113244 16 225 0.0 0.0 0.00 0.00 0.33 71 1010.7
20260502112243 16 180 0.0 0.0 0.00 0.00 0.33 71 1010.5
20260502111243 16 180 0.0 0.0 0.00 0.00 0.33 70 1010.4
20260502110242 16 180 0.0 0.0 0.00 0.00 0.33 70 1010.2
20260502105242 17 225 0.0 0.0 0.00 0.00 0.33 69 1010.2
20260502104242 17 180 0.0 0.0 0.00 0.00 0.33 68 1010.0
20260502103242 17 180 0.0 0.0 0.00 0.00 0.33 67 1010.0
20260502102241 17 180 0.0 1.6 0.00 0.00 0.33 65 1009.8
20260502101241 17 148 0.0 0.0 0.00 0.00 0.33 65 1009.6
20260502100240 18 180 0.0 0.0 0.00 0.00 0.33 63 1009.6
20260502091239 19 180 0.0 0.0 0.00 0.00 0.33 58 1008.9
20260502090238 20 193 0.0 0.0 0.00 0.00 0.33 57 1008.9
20260502071234 21 115 3.2 6.4 0.00 0.00 0.33 45 1008.0
20260502070234 21 275 0.0 6.4 0.00 0.00 0.33 44 1007.8
20260502065234 21 172 1.6 9.7 0.00 0.00 0.33 44 1007.4
20260502064233 21 157 0.0 8.0 0.00 0.00 0.33 43 1007.3
20260502063233 22 234 1.6 4.8 0.00 0.00 0.33 44 1007.4
20260502062232 22 180 0.0 6.4 0.00 0.00 0.33 44 1007.5
20260502061232 22 71 1.6 6.4 0.00 0.00 0.33 44 1007.5
20260502060232 22 208 0.0 6.4 0.00 0.00 0.33 45 1007.5
20260502055232 22 185 0.0 3.2 0.00 0.00 0.33 45 1007.5
20260502054231 22 243 1.6 8.0 0.00 0.00 0.33 43 1007.3
20260502053231 22 270 1.6 9.7 0.00 0.00 0.33 44 1007.2
20260502052230 22 129 3.2 6.4 0.00 0.00 0.33 43 1007.2
20260502051230 22 123 0.0 4.8 0.00 0.00 0.33 43 1007.3
20260502050230 22 210 1.6 6.4 0.00 0.00 0.33 43 1006.8
20260502045230 22 236 0.0 11.3 0.00 0.00 0.33 42 1007.0
20260502044229 22 112 3.2 6.4 0.00 0.00 0.33 42 1007.0
20260502043229 22 193 0.0 6.4 0.00 0.00 0.33 42 1007.1
20260502042228 23 230 1.6 4.8 0.00 0.00 0.33 43 1006.7
20260502041228 23 106 6.4 8.0 0.00 0.00 0.33 42 1006.8
20260502040227 23 238 1.6 1.6 0.00 0.00 0.33 44 1006.7
20260502035227 23 126 1.6 3.2 0.00 0.00 0.33 43 1006.9
20260502034227 23 189 0.0 4.8 0.00 0.00 0.33 43 1006.9
20260502033227 23 90 0.0 3.2 0.00 0.00 0.33 43 1006.6
20260502032226 23 180 0.0 1.6 0.00 0.00 0.33 44 1006.5
20260502031226 23 67 0.0 3.2 0.00 0.00 0.33 44 1006.4
20260502030225 23 207 0.0 4.8 0.00 0.00 0.33 45 1006.6
20260502025225 23 188 0.0 1.6 0.00 0.00 0.33 45 1006.3
20260502024225 22 186 1.6 1.6 0.00 0.00 0.33 47 1006.3
20260502023225 22 180 0.0 3.2 0.00 0.00 0.33 47 1006.6
20260502022224 22 126 1.6 1.6 0.00 0.00 0.33 48 1006.6
20260502021224 22 191 0.0 1.6 0.00 0.00 0.33 48 1006.6
20260502015221 21 225 0.0 0.0 0.00 0.00 0.33 52 1006.2
20260502014221 21 103 3.2 11.3 0.00 0.00 0.33 48 1006.1
20260502013221 21 132 3.2 4.8 0.00 0.00 0.33 51 1006.1
20260502012220 20 144 0.0 6.4 0.00 0.00 0.33 52 1006.0
20260502011220 20 220 0.0 3.2 0.00 0.00 0.33 55 1005.8
20260502010219 19 125 1.6 6.4 0.00 0.00 0.33 54 1005.6
20260502005219 18 130 1.6 4.8 0.00 0.00 0.33 56 1005.7
20260502004218 18 180 0.0 4.8 0.00 0.00 0.33 60 1005.7
20260502003218 17 195 0.0 3.2 0.00 0.00 0.33 58 1005.8
20260502002218 17 186 0.0 0.0 0.00 0.00 0.33 65 1005.7
20260502001218 16 157 1.6 1.6 0.00 0.00 0.33 66 1005.5
20260502000218 16 229 0.0 4.8 0.00 0.00 0.33 67 1005.7
20260501235217 16 137 1.6 4.8 0.00 0.00 0.33 73 1005.6
20260501234216 15 171 0.0 3.2 0.00 0.00 0.33 71 1005.5
20260501233216 15 150 0.0 3.2 0.00 0.00 0.33 76 1005.2
20260501232216 15 130 3.2 3.2 0.00 0.00 0.33 79 1005.3
20260501231216 15 180 0.0 0.0 0.00 0.00 0.33 80 1005.1
20260501230215 14 150 0.0 3.2 0.00 0.00 0.33 79 1005.2
20260501225215 14 137 1.6 3.2 0.00 0.00 0.33 81 1005.1
20260501224214 14 171 0.0 1.6 0.00 0.00 0.33 82 1005.1
20260501223214 13 207 0.0 3.2 0.00 0.00 0.33 82 1004.9
20260501222214 13 198 0.0 0.0 0.00 0.00 0.33 86 1004.7
20260501221213 13 225 0.0 0.0 0.00 0.00 0.33 89 1004.8
20260501220213 13 180 0.0 3.2 0.00 0.00 0.33 89 1004.8
20260501215213 13 168 0.0 0.0 0.00 0.00 0.33 95 1004.5
20260501214212 12 128 1.6 1.6 0.00 0.00 0.33 98 1004.3
20260501213212 11 157 0.0 0.0 0.00 0.00 0.33 100 1004.0
20260501212211 11 202 0.0 0.0 0.00 0.00 0.33 100 1004.0
20260501211211 11 180 0.0 0.0 0.00 0.00 0.33 100 1003.8
20260501210211 10 180 0.0 0.0 0.00 0.00 0.33 100 1003.7